DELTA 1 DEB, 21434

Orbit data source: Space-Track

DELTA 1 DEB, 21434 is space debris in SSO originally from a launch on Thu, 12 Jun 1975 UTC launched from the Air Force Western Test Range (AFWTR). Debris objects in space refer to the collection of defunct objects orbiting the Earth. Examples of debris include non-operational satellites, rocket bodies, and fragments generated from explosions, collisions, or faulty payload assembly.

Loading next visibility...
Identifier
21434, 1975-052DS
Orbit
SSO
Country
Flag of USUS
Related business
Manufacturer
Unknown
Mission
Spacecraft
Bus & Motor
Unknown
Mass
Unknown
Launch date (UTC)
1975-06-12 (51 years ago)
Launch vehicle
Unknown
Launch site
Air Force Western Test Range (AFWTR)
Object type
Payload
Rocket body
Debris
Shape & HBR
Unknown shape, 0.1 m
Radar Cross Section
Small (<0.1 m²)

Expand to show TLE details & history
Last TLE update: 11 hours ago

TLE from 11 hours ago
0 DELTA 1 DEB
1 21434U 75052DS  26124.68165663 -.00000116  00000-0 -45027-3 0  9990
2 21434  99.4621 205.3760 0656179   4.8044 148.3100 12.16313501553557
Epoch: 2026-05-04T16:21Z
TLE epoch observation values (Epoch: 2026-05-04T16:21:35.132Z)
Latitude
22.87692°
Longitude
-78.57359°
Altitude
2,065.917 km
Speed
6.675 km/s
True Right ascension
01h 57m 33s
True Declination
22° 46' 23"
Sunlit
Object was in daylight at epoch
Visualization orbit readout
Latitude
Unknown
Longitude
Unknown
Altitude
Unknown
Speed
Unknown
Apparent Right ascension
Unknown
Apparent Declination
Unknown
Sunlit
N/A
Visualization observer readout
Local Sidereal Time
11:21:35
Azimuth
Unknown
Elevation
Unknown
Doppler factor
Unknown
Orbital elements
Apogee altitude
2,130.003 km
Perigee altitude
1,082.186 km
Semi-major axis
7,984.231 km
Eccentricity
0.06562
Inclination
99.4621°
RAAN
205.376°
Arg. of periapsis
4.8044°
True anomaly
151.99921°
Mean anomaly
148.31°
Eccentric anomaly
150.1796°
Mean motion
3.04224 °/min
Orbital period
118.33 mins
BSTAR
-0.00045027
Loading maneuver chart data...
Computing Atmospheric mass density...
Loading historical data...
Loading historical data...
Loading historical data...
Loading historical data...
Loading historical data...
Loading historical data...
Loading historical data...

Documentation

Showing up to 5 results
|